DECAYED
Showing default

MANTIS, 58257 (Decayed)

Orbit data source: Space-Track

MANTIS, 58257 was a UK payload satellite in LEO that was launched on Sat, 11 Nov 2023 UTC via an FALCON 9 launch vehicle from the Air Force Western Test Range (AFWTR). Payload-class satellites include a variety of spacecraft equipped with specific instruments for various scientific and technological missions. These include communications satellites like Starlink; space stations such as the ISS; scientific satellites like the Hubble; Earth observation satellites from companies like Planet Labs, Umbra, and HawkEye 360; GPS; miniature CubeSats for education and research; and military/defense satellites.

Not visible in the next 10 days
Identifier
58257, 2023-174B
Orbit
Decayed
Country
Flag of UKUK
Related business
Manufacturer
Open Cosmos
Mission
Decayed Commercial Imaging
Bus & Motor
CUBESAT 12U, Unknown motor
Mass
14.5 kg wet, 14.5 kg dry
Launch date (UTC)
2023-11-11 (3 years ago)
Launch vehicle
FALCON 9
Launch site
Air Force Western Test Range (AFWTR)
Object type
Payload
Rocket body
Debris
Shape & HBR
Box + 2 Pan, 0.3 m
Radar Cross Section
0.098 m², Medium (>0.1 m² and < 1m²)

Expand to show TLE details & history
Last TLE update: 11 months ago

TLE from 11 months ago
0 MANTIS
1 58257U 23174B   25286.89946907  .04150603  24250-5  22000-2 0  9992
2 58257  97.3843  17.6989 0013234 281.2908  78.6894 16.19840603108342
Epoch: 2025-10-13T21:35Z
TLE epoch observation values (Epoch: 2025-10-13T21:35:14.127Z)
Latitude
0.00002°
Longitude
31.19441°
Altitude
221.508 km
Speed
7.775 km/s
True Right ascension
01h 10m 47s
True Declination
0° 00' 00"
Sunlit
Object was in full shadow at epoch
Visualization orbit readout
Latitude
Unknown
Longitude
Unknown
Altitude
Unknown
Speed
Unknown
Apparent Right ascension
Unknown
Apparent Declination
Unknown
Sunlit
N/A
Visualization observer readout
Local Sidereal Time
16:17:53
Azimuth
Unknown
Elevation
Unknown
Doppler factor
Unknown
Orbital elements
Apogee altitude
225.546 km
Perigee altitude
208.09 km
Semi-major axis
6,594.955 km
Eccentricity
0.00132
Inclination
97.3843°
RAAN
17.6989°
Arg. of periapsis
281.2908°
True anomaly
78.83815°
Mean anomaly
78.6894°
Eccentric anomaly
78.76377°
Mean motion
4.05252 °/min
Orbital period
88.83 mins
BSTAR
0.0022
Loading maneuver chart data...
Computing Atmospheric mass density...
Loading historical data...
Loading historical data...
Loading historical data...
Loading historical data...
Loading historical data...
Loading historical data...
Loading historical data...

Documentation

Showing up to 5 results
|